Location: Latina
(41.4670°N, 12.8670°E)
Time: 16:41:26
(UTC+02:00)

ISS - Pass Details

Date: 19 May 2021
Orbit: 417 x 422 km, 51.6° (Epoch: 18 June)

Event Time Altitude Azimuth Distance (km) Brightness Sun altitude
Rises 22:04:48 0° 276° (W) 2,360 0.9 -15.8°
Reaches altitude 10° 22:07:17 10° 294° (WNW) 1,499 0.1 -16.1°
Maximum altitude 22:09:50 20° 343° (NNW) 1,041 -0.9 -16.4°
Drops below altitude 10° 22:12:25 10° 33° (NNE) 1,504 -0.8 -16.7°
Sets 22:14:55 0° 52° (NE) 2,371 0.0 -17.0°
